sat.trackr.live / text

‹ back to catalog

STARLINK-32365

NORAD 61625 · 2024-191E

PAYLOAD ACTIVE UNKNOWN

§ Identity

Operator
Country
US
Launch date
2024-10-23
Launch site
AFETR
Launch vehicle
Mass (kg)
RCS (m²)

Purposes: comms

External: N2YO · Heavens-Above · Gunter

§ Orbital elements

Epoch: 2026-05-25T02:11:19.237632Z

Period
94.27 min
Inclination
43.0033°
Eccentricity
0.0001360
Mean motion
15.27579952 rev/d
Perigee alt
482.1 km
Apogee alt
484.0 km
Semi-major
6,861.2 km
B*
-6.0976e-5
RAAN
82.7998°
Arg perigee
251.3942°
Mean anomaly
108.6762°
Rev number
8,922

§ Raw data

STARLINK-323651 61625U 24191E   26145.09119488 -.00001940  00000+0 -60976-4 0  99922 61625  43.0033  82.7998 0001360 251.3942 108.6762 15.27579952 89227

JSON: /api/v1/satellites/61625 · /tle

For live sub-satellite position, see the globe view (requires WebGL).

§ Visibility from observer

Set your observer location to see the next 7 days of passes ≥ 10°. The values pass through the URL so the page stays shareable.

No JS? Fill the form by hand. The geolocation button needs JavaScript.